LogoCoinalyze
    Ad-Free Version Anasayfa Piyasalar Fonlama Oranları
    Vadeli işlem verileri
    • Toplulaştırılmış veriler (Madeni Paralar)
    • Bireysel grafikler
    • Küresel grafikler
    Alarmlar
    TA
    Bitcoin Ethereum BNB Ripple Tron ZCash Dogecoin Monero UNUS SED LEO Chainlink Cardano Stellar Lumens Bitcoin Cash Litecoin Hedera Cronos Polkadot Ethereum Classic Algorand Quant Cosmos VeChain Dash Bitcoin SV BitTorrent Terra Decred Tezos Iota The Graph THETA Decentraland MultiversX NEO Chiliz Golem Basic Attention Token Horizen Qtum 0x DigiByte Beam RIF Token FTX Token Holo FUNToken Zilliqa Ontology Nano aelf Enjin Coin Ravencoin Verge Mask Network Siacoin Status WINk Waves IoTeX iExec RLC Power Ledger Kyber Network Crystal Steem Lisk Ark Ardor WOO Network IOST WAX Icon Storj Wanchain Loopring Bitcoin Diamond Augur AdEx Bitcoin Gold OmiseGO NEM MonaCoin BitShares Ren Komodo V Systems Nuls Mithril SOLVE EOS Maker Aion Nebulas HedgeTrade Bread Fetch.ai TomoChain Polygon Fantom Waltonchain GXChain Bytom Metaverse ETP MaidSafeCoin QASH
    Sırala:
    Daha
    • API
    • Mum Desenleri
    • Bağış
    • İletişim
    • Site Haritası
    • Gizlilik Politikası
    • Sorumluluk Reddi Beyanı
    • Theme:
    Türkçe
    • English
    • Français
    • Русский
    • Deutsch
    • Nederlands
    • Português (BR)
    • Español
    • 한국어
    • 简体中文
    • 日本語
     
    Giriş / Kaydol
    Markets/ Pepe/ PEPE ve FDUSD/ PEPEFDUSD Binance
    İşlemler
    WL
    Sohbet
    İstatistikler
    Haberler
    ⦷
    AAA
    0.00000340 23067400.00000000 20:13:39
    0.00000340 34539400.00000000 20:13:39
    0.00000340 27711600.00000000 20:13:39
    0.00000340 2574531.00000000 20:13:33
    0.00000340 11580720.00000000 20:13:32
    0.00000341 24029900.00000000 20:12:46
    0.00000341 24029900.00000000 20:12:37
    0.00000341 45485904.00000000 20:11:42
    0.00000341 426036.00000000 20:09:49
    0.00000342 2566833.00000000 20:09:47
    0.00000341 450000.00000000 20:09:46
    0.00000341 451328.00000000 20:09:45
    0.00000342 30.00000000 20:09:42
    0.00000342 5572800.00000000 20:09:42
    0.00000343 22.00000000 20:07:44
    0.00000343 1004800.00000000 20:07:14
    0.00000343 2566833.00000000 20:06:55
    0.00000343 53079678.00000000 20:06:53
    0.00000342 2574531.00000000 20:03:30
    0.00000342 41116573.00000000 20:03:29
    0.00000341 6909504.00000000 20:01:31
    0.00000340 27914814.00000000 19:27:31
    0.00000341 15.00000000 19:11:27
    0.00000341 1010700.00000000 19:11:27
    0.00000341 70535.00000000 19:07:38
    0.00000341 6982923.00000000 19:07:38
    0.00000340 24145008.00000000 18:41:52
    0.00000340 24179800.00000000 18:30:27
    0.00000340 1000000.00000000 18:28:39
    0.00000340 581030.00000000 18:23:19
    0.00000340 581029.00000000 18:22:49
    0.00000340 233494834.00000000 18:22:30
    0.00000340 24191210.00000000 18:21:23
    0.00000340 184365700.00000000 18:21:23
    0.00000340 54.00000000 18:21:16
    0.00000340 7359300.00000000 18:21:16
    0.00000340 2582200.00000000 18:18:52
    0.00000341 55.00000000 18:18:51
    0.00000341 80585900.00000000 18:18:51
    0.00000341 177006800.00000000 18:18:51
    0.00000341 95308827.00000000 18:18:49
    0.00000340 24199046.00000000 18:08:46
    0.00000340 87685164.00000000 18:07:48
    0.00000340 233494800.00000000 18:03:17
    0.00000340 292680509.00000000 18:02:50
    0.00000340 441827.00000000 18:02:50
    0.00000340 441827.00000000 18:02:50
    0.00000340 441827.00000000 18:02:50
    0.00000339 2589991.00000000 18:02:39
    0.00000340 294118.00000000 18:02:38
    0.00000340 294118.00000000 18:02:38
    0.00000340 1125556493.00000000 18:02:38
    0.00000340 294118.00000000 18:02:38
    0.00000340 294118.00000000 18:02:38
    0.00000340 294118.00000000 18:02:38
    0.00000339 294986.00000000 17:47:46
    0.00000339 294986.00000000 17:47:46
    0.00000339 294986.00000000 17:47:46
    0.00000339 294986.00000000 17:47:46
    0.00000339 690868.00000000 17:47:46
    0.00000339 294986.00000000 17:47:46
    0.00000339 2597752.00000000 17:44:52
    0.00000339 62599693.00000000 17:44:49
    0.00000338 11028940.00000000 17:24:02
    0.00000337 296736.00000000 17:21:24
    0.00000337 296736.00000000 17:21:24
    0.00000337 296736.00000000 17:21:24
    0.00000337 296736.00000000 17:21:24
    0.00000337 40288746.00000000 17:21:24
    0.00000337 296736.00000000 17:21:24
    0.00000338 2597752.00000000 17:21:23
    0.00000337 83068955.00000000 17:21:21
    0.00000338 2589991.00000000 17:17:42
    0.00000338 55221302.00000000 17:17:41
    0.00000339 6411336.00000000 17:15:19
    0.00000339 6445169.00000000 17:15:18
    0.00000339 8613146.00000000 17:11:19
    0.00000339 601457.00000000 17:09:22
    0.00000339 65854973.00000000 16:57:30
    0.00000340 2582200.00000000 16:57:13
    0.00000339 294986.00000000 16:57:10
    0.00000339 294986.00000000 16:57:10
    0.00000339 294986.00000000 16:57:10
    0.00000339 294986.00000000 16:57:10
    0.00000339 294986.00000000 16:57:10
    0.00000339 21717351.00000000 16:57:10
    0.00000340 7102770.00000000 16:43:02
    0.00000340 500737.00000000 16:42:16
    0.00000340 2574531.00000000 16:41:40
    0.00000340 7398179.00000000 16:41:37
    0.00000341 28042666.00000000 16:36:32
    0.00000341 350904.00000000 16:10:50
    0.00000342 10280635.00000000 16:08:32
    0.00000341 22646992.00000000 16:06:09
    0.00000341 293256.00000000 16:06:09
    0.00000341 293256.00000000 16:06:09
    0.00000341 293256.00000000 16:06:09
    0.00000341 293256.00000000 16:06:09
    0.00000341 293256.00000000 16:06:09
    0.00000341 293256.00000000 16:03:34
    Çıkış
    AAA
    Yardım
    🙂 🤣 😎 🤗 😛 😉 😜 🤑 🤔 😑 😴 😕 🙃 😲 😇 🙁 😢 😬 😟 😠 🕺 🏃 💪 ✌ 👌 👍 👎 👏 👋 🤝 🍺 🍻 🐋 🐟 🦈 🗽 🚄 ✈ 🛑 🚀 🏦 🌚 ⭐ 🌞 ⚡ 🏆 💰 💲 🔨 ❓ ❗ 💯 🔶 🏁
    ☺
    Giriş veya Kaydol ve sohbet
    24 Saat
    Değişim
    -2.58%
    Hacim
    17,796,423,207
    Yüksek
    0.00000350
    Düşük
    0.00000337
    7 Gün
    Değişim
    -10.99%
    Hacim
    221,271,939,349
    Yüksek
    0.00000401
    Düşük
    0.00000337
    30 Gün
    Değişim
    +17.24%
    Hacim
    1,401,051,083,779
    Yüksek
    0.00000456
    Düşük
    0.00000254
    Pepe price rallies 25% as whale demand and futures interest surge
    Key takeaways Pepe has gained 25% this week, including a combined 22% advance over the previous two days. Seven whale transactions worth more than $1 million each occurred Thursday, the highest...
    coinjournal.net
    Aug 21, 2026 08:41
    PEPE Supply on Exchanges Just Took a Massive Hit – What’s Next?
    A drop in PEPE exchange balances has added to bullish expectations despite muted trader interest.
    cryptopotato.com
    Aug 6, 2026 20:02
    PEPE Exchange Outflows Hit Nearly 2-Year High as Whales Accumulate
    Pepe (PEPE) recorded its largest single-day exchange outflow since November 2024, with 4.54 trillion tokens leaving trading platforms, signaling that holders are moving supply away from immediate...
    beincrypto.com
    Aug 6, 2026 04:57
    Meme Coin Based on White House Shooter Conspiracy Rallies 320%
    $HENRY surged 300% after a 2023 Pepe tweet appeared to name the White House shooter, fueling a viral time-travel meme. The post Meme Coin Based on White House Shooter Conspiracy Rallies 320%...
    beincrypto.com
    Apr 27, 2026 16:11
    PEPE surges 4% as market sentiment improves, eyes Key resistance breakout
    Key takeaways Pepe extends gains on Wednesday, stretching its rally from the 50-day EMA. Derivatives data show heightened retail activity as risk-on sentiment returns to the market. Pepe (PEPE) is...
    coinjournal.net
    Apr 22, 2026 11:44
    Why The PEPE Price Could Stage A 55X Rally To Reach New $0.0001 ATH
    The PEPE price has now started to edge back into bullish conversations after the recent inflows into the crypto market. The last time PEPE’s weekly chart printed the kind of structure now...
    newsbtc.com
    Apr 21, 2026 15:30
    Pepe (PEPE) surges 9%, drawing interest from whales
    Key takeaways PEPE is up 9% in the last 24 hours, making it one of the best performers among the top 50 cryptocurrencies by market cap. The rally comes amid renewed interest from whales and retail...
    coinjournal.net
    Apr 16, 2026 07:40
    Murad Says SPX6900 (SPX) Is Primed for a Rally — Is He Right This Time?
    Crypto influencer Murad Mahmudov claims SPX6900 (SPX) is stabilizing at the same market cap level where Dogecoin (DOGE) and Pepe (PEPE) consolidated before their explosive rallies. The...
    beincrypto.com
    Apr 5, 2026 21:36
    The Shiba Inu Of This Cycle: Analyst Shares Why It Is Better To Buy PEPE Now
    In the bull market cycle of 2021-2022, the Shiba Inu meme coin made waves in a way that changed the face of meme coins forever. This came after Dogecoin’s initial 36,000% rally, and Shiba Inu...
    newsbtc.com
    Apr 4, 2026 07:30
    PEPE Explodes by 18% Amid Altcoin Rally, BTC Tapped $74K: Market Watch
    The frog-themed meme coin is today's biggest gainer, followed by TAO, DOT, and BONK.
    cryptopotato.com
    Mar 16, 2026 10:56
    Should PEPE traders brace for volatility as short squeeze potential builds?
    The memecoin market has seen its collective market capitalization drop by 48% over the past year, and 6.9% over the past month, according to CoinMarketCap. According to Glassnode, the memecoin...
    ambcrypto.com
    Mar 7, 2026 18:00
    Komutu sohbete yazmanız yeterlidir. Takma ad1'i gerçek takma adla değiştirin.
    • /ignore nick1 Sohbet kullanıcısını engelle
    • /unignore nick1 Sohbet kullanıcısının engelini kaldır.
    • /ignorelist Engellediğiniz sohbet kullanıcılarını gösterin